Tracking 31011 objects as of 12-Jul-2025
HD Live streaming from Space Station
objects crossing your sky now

THORAD AGENA D DEB

Track THORAD AGENA D DEB now!
10-day predictions


NORAD ID: 4171
Int'l Code: 1969-082AP
Perigee: 750.0 km
Apogee: 802.7 km
Inclination: 70.1 °
Period: 100.2 minutes
Semi major axis: 7147 km
RCS: 0.0461 m2 (small)
Launch date: September 30, 1969
Source: United States (US)
Launch site: AIR FORCE WESTERN TEST RANGE (AFWTR)

Note: This is SATELLITE DEBRIS
Your satellite tracking list
Your tracking list is empty




NASA's NSSDC Master Catalog

Two Line Element Set (TLE):
1 04171U 69082AP  25192.53042409  .00000605  00000-0  22278-3 0  9999
2 04171  70.0743 230.8126 0036824 238.3424 121.4111 14.36766991890243
Source of the keplerian elements: AFSPC